Time,TemperatureF,DewpointF,PressureIn,WindDirection,WindDirectionDegrees,WindSpeedMPH,WindSpeedGustMPH,Humidity,HourlyPrecipIn,Conditions,Clouds,dailyrainin,SoftwareType,DateUTC
2013-06-23 00:00:00,79.9,68.0,29.70,ESE,112,7.0,17.0,67,0.00,,,0.00,Wunderground v.1.15,2013-06-23 05:00:00,
2013-06-23 00:10:00,79.9,68.0,29.70,SSE,151,8.0,8.0,67,0.00,,,0.00,Wunderground v.1.15,2013-06-23 05:10:00,
2013-06-23 00:15:00,79.8,67.9,29.71,SSE,147,8.0,17.0,67,0.00,,,0.00,Wunderground v.1.15,2013-06-23 05:15:00,
2013-06-23 00:20:00,79.8,67.9,29.71,SE,143,7.0,17.0,67,0.00,,,0.00,Wunderground v.1.15,2013-06-23 05:20:00,
2013-06-23 00:30:00,79.8,67.9,29.70,SE,144,9.0,17.0,67,0.00,,,0.00,Wunderground v.1.15,2013-06-23 05:30:00,
2013-06-23 00:40:00,79.6,67.7,29.70,SSE,157,7.0,7.0,67,0.00,,,0.00,Wunderground v.1.15,2013-06-23 05:40:00,
2013-06-23 00:45:00,79.6,67.7,29.68,SE,137,9.0,9.0,67,0.00,,,0.00,Wunderground v.1.15,2013-06-23 05:45:00,
2013-06-23 00:55:00,79.4,67.5,29.68,SE,143,8.0,20.0,67,0.00,,,0.00,Wunderground v.1.15,2013-06-23 05:55:00,
2013-06-23 01:05:00,79.4,67.5,29.68,SSE,148,9.0,20.0,67,0.00,,,0.00,Wunderground v.1.15,2013-06-23 06:05:00,
2013-06-23 01:15:00,79.4,67.5,29.67,SSE,150,8.0,9.0,67,0.00,,,0.00,Wunderground v.1.15,2013-06-23 06:15:00,
2013-06-23 01:25:00,79.4,67.5,29.67,SE,134,8.0,9.0,67,0.00,,,0.00,Wunderground v.1.15,2013-06-23 06:25:00,
2013-06-23 01:30:00,79.2,67.3,29.65,South,182,8.0,20.0,67,0.00,,,0.00,Wunderground v.1.15,2013-06-23 06:30:00,
2013-06-23 01:40:00,79.0,67.1,29.65,SSE,147,8.0,20.0,67,0.00,,,0.00,Wunderground v.1.15,2013-06-23 06:40:00,
2013-06-23 01:50:00,79.0,67.1,29.66,SSE,164,7.0,7.0,67,0.00,,,0.00,Wunderground v.1.15,2013-06-23 06:50:00,
2013-06-23 02:00:00,78.6,67.2,29.66,SE,145,6.0,22.0,68,0.00,,,0.00,Wunderground v.1.15,2013-06-23 07:00:00,
2013-06-23 02:10:00,78.6,67.2,29.66,SE,144,7.0,7.0,68,0.00,,,0.00,Wunderground v.1.15,2013-06-23 07:10:00,
2013-06-23 02:15:00,78.6,67.2,29.66,SSW,203,7.0,10.0,68,0.00,,,0.00,Wunderground v.1.15,2013-06-23 07:15:00,
2013-06-23 02:25:00,78.3,66.9,29.66,SSE,151,6.0,15.0,68,0.00,,,0.00,Wunderground v.1.15,2013-06-23 07:25:00,
2013-06-23 02:35:00,78.1,67.1,29.67,SSE,168,6.0,15.0,69,0.00,,,0.00,Wunderground v.1.15,2013-06-23 07:35:00,
2013-06-23 02:40:00,78.1,67.1,29.67,SE,144,6.0,15.0,69,0.00,,,0.00,Wunderground v.1.15,2013-06-23 07:40:00,
2013-06-23 02:50:00,77.9,66.9,29.67,SSE,157,6.0,16.0,69,0.00,,,0.00,Wunderground v.1.15,2013-06-23 07:50:00,
2013-06-23 03:00:00,77.7,66.7,29.67,SSE,158,6.0,16.0,69,0.00,,,0.00,Wunderground v.1.15,2013-06-23 08:00:00,
2013-06-23 03:10:00,77.7,66.7,29.67,SSE,152,6.0,16.0,69,0.00,,,0.00,Wunderground v.1.15,2013-06-23 08:10:00,
2013-06-23 03:15:00,77.7,66.7,29.68,SE,141,7.0,16.0,69,0.00,,,0.00,Wunderground v.1.15,2013-06-23 08:15:00,
2013-06-23 03:25:00,77.6,66.6,29.68,SSE,162,6.0,15.0,69,0.00,,,0.00,Wunderground v.1.15,2013-06-23 08:25:00,
2013-06-23 03:35:00,77.6,66.6,29.67,SSE,147,7.0,15.0,69,0.00,,,0.00,Wunderground v.1.15,2013-06-23 08:35:00,
2013-06-23 03:45:00,77.4,66.4,29.68,SSE,147,7.0,15.0,69,0.00,,,0.00,Wunderground v.1.15,2013-06-23 08:45:00,
2013-06-23 03:55:00,77.2,66.7,29.68,ESE,117,6.0,15.0,70,0.00,,,0.00,Wunderground v.1.15,2013-06-23 08:55:00,
2013-06-23 04:00:00,77.2,66.7,29.67,SE,134,7.0,15.0,70,0.00,,,0.00,Wunderground v.1.15,2013-06-23 09:00:00,
2013-06-23 04:10:00,77.0,66.5,29.67,SSE,151,7.0,15.0,70,0.00,,,0.00,Wunderground v.1.15,2013-06-23 09:10:00,
2013-06-23 04:15:00,77.0,66.5,29.67,SSE,161,7.0,15.0,70,0.00,,,0.00,Wunderground v.1.15,2013-06-23 09:15:00,
2013-06-23 04:25:00,76.8,66.3,29.67,SSE,147,7.0,14.0,70,0.00,,,0.00,Wunderground v.1.15,2013-06-23 09:25:00,
2013-06-23 04:35:00,76.8,66.7,29.67,SSE,151,7.0,14.0,71,0.00,,,0.00,Wunderground v.1.15,2013-06-23 09:35:00,
2013-06-23 04:40:00,76.7,66.6,29.67,SSE,152,7.0,7.0,71,0.00,,,0.00,Wunderground v.1.15,2013-06-23 09:40:00,
2013-06-23 04:50:00,76.3,66.6,29.67,SSE,148,6.0,15.0,72,0.00,,,0.00,Wunderground v.1.15,2013-06-23 09:50:00,
2013-06-23 04:55:00,76.3,66.6,29.67,SSE,151,5.0,15.0,72,0.00,,,0.00,Wunderground v.1.15,2013-06-23 09:55:00,
2013-06-23 05:05:00,76.1,66.4,29.67,SSE,152,6.0,15.0,72,0.00,,,0.00,Wunderground v.1.15,2013-06-23 10:05:00,
2013-06-23 05:15:00,76.1,66.4,29.67,SSE,165,7.0,15.0,72,0.00,,,0.00,Wunderground v.1.15,2013-06-23 10:15:00,
2013-06-23 05:25:00,76.0,66.7,29.67,SSE,158,7.0,13.0,73,0.00,,,0.00,Wunderground v.1.15,2013-06-23 10:25:00,
2013-06-23 05:30:00,76.0,66.7,29.66,SE,141,7.0,14.0,73,0.00,,,0.00,Wunderground v.1.15,2013-06-23 10:30:00,
2013-06-23 05:40:00,76.0,66.7,29.66,South,175,9.0,14.0,73,0.00,,,0.00,Wunderground v.1.15,2013-06-23 10:40:00,
2013-06-23 05:45:00,76.0,66.7,29.64,South,171,10.0,14.0,73,0.00,,,0.00,Wunderground v.1.15,2013-06-23 10:45:00,
2013-06-23 05:55:00,75.8,66.9,29.64,SE,136,9.0,21.0,74,0.00,,,0.00,Wunderground v.1.15,2013-06-23 10:55:00,
2013-06-23 06:05:00,76.0,67.1,29.64,SE,140,9.0,21.0,74,0.00,,,0.00,Wunderground v.1.15,2013-06-23 11:05:00,
2013-06-23 06:10:00,76.0,67.1,29.64,SSE,147,9.0,9.0,74,0.00,,,0.00,Wunderground v.1.15,2013-06-23 11:10:00,
2013-06-23 06:20:00,76.1,67.2,29.64,South,188,9.0,9.0,74,0.00,,,0.00,Wunderground v.1.15,2013-06-23 11:20:00,
2013-06-23 06:30:00,76.3,67.4,29.64,South,184,8.0,20.0,74,0.00,,,0.00,Wunderground v.1.15,2013-06-23 11:30:00,
2013-06-23 06:35:00,76.5,67.2,29.64,South,174,8.0,20.0,73,0.00,,,0.00,Wunderground v.1.15,2013-06-23 11:35:00,
2013-06-23 06:45:00,76.8,67.5,29.65,SSE,148,8.0,20.0,73,0.00,,,0.00,Wunderground v.1.15,2013-06-23 11:45:00,
2013-06-23 06:55:00,77.2,67.5,29.65,SW,215,7.0,11.0,72,0.00,,,0.00,Wunderground v.1.15,2013-06-23 11:55:00,
2013-06-23 07:05:00,77.6,67.9,29.65,SSE,151,8.0,21.0,72,0.00,,,0.00,Wunderground v.1.15,2013-06-23 12:05:00,
2013-06-23 07:10:00,77.7,68.0,29.65,SSE,161,8.0,8.0,72,0.00,,,0.00,Wunderground v.1.15,2013-06-23 12:10:00,
2013-06-23 07:20:00,78.1,67.5,29.66,SSW,206,8.0,17.0,70,0.00,,,0.00,Wunderground v.1.15,2013-06-23 12:20:00,
2013-06-23 07:30:00,78.1,67.5,29.74,WSW,257,12.0,12.0,70,0.00,,,0.00,Wunderground v.1.15,2013-06-23 12:30:00,
2013-06-23 07:35:00,77.9,67.7,29.74,West,267,13.0,15.0,71,0.00,,,0.00,Wunderground v.1.15,2013-06-23 12:35:00,
2013-06-23 07:45:00,77.2,67.5,29.75,WNW,287,10.0,17.0,72,0.00,,,0.00,Wunderground v.1.15,2013-06-23 12:45:00,
2013-06-23 07:55:00,74.9,65.3,29.75,North,0,13.0,26.0,72,0.00,,,0.00,Wunderground v.1.15,2013-06-23 12:55:00,
2013-06-23 08:00:00,72.0,62.9,29.77,NNW,329,16.0,26.0,73,0.00,,,0.00,Wunderground v.1.15,2013-06-23 13:00:00,
2013-06-23 08:10:00,67.8,60.7,29.77,North,357,13.0,13.0,78,0.00,,,0.01,Wunderground v.1.15,2013-06-23 13:10:00,
2013-06-23 08:20:00,66.3,60.3,29.78,NNE,27,15.0,29.0,81,0.08,,,0.02,Wunderground v.1.15,2013-06-23 13:20:00,
2013-06-23 08:25:00,66.0,60.0,29.78,North,8,16.0,29.0,81,0.06,,,0.03,Wunderground v.1.15,2013-06-23 13:25:00,
2013-06-23 08:35:00,65.6,60.0,29.80,NNE,31,11.0,29.0,82,0.04,,,0.03,Wunderground v.1.15,2013-06-23 13:35:00,
2013-06-23 08:45:00,65.6,60.3,29.81,NE,40,9.0,29.0,83,0.00,,,0.03,Wunderground v.1.15,2013-06-23 13:45:00,
2013-06-23 08:50:00,65.6,60.3,29.81,North,7,7.0,26.0,83,0.00,,,0.03,Wunderground v.1.15,2013-06-23 13:50:00,
2013-06-23 09:00:00,65.6,60.3,29.76,NE,41,7.0,26.0,83,0.00,,,0.03,Wunderground v.1.15,2013-06-23 14:00:00,
2013-06-23 09:10:00,65.3,60.3,29.76,ENE,61,5.0,26.0,84,0.04,,,0.11,Wunderground v.1.15,2013-06-23 14:10:00,
2013-06-23 09:20:00,65.5,60.5,29.78,NE,55,3.0,13.0,84,0.00,,,0.11,Wunderground v.1.15,2013-06-23 14:20:00,
2013-06-23 09:30:00,65.8,60.8,29.80,NNE,24,5.0,13.0,84,0.00,,,0.11,Wunderground v.1.15,2013-06-23 14:30:00,
2013-06-23 09:40:00,65.8,60.8,29.80,NE,56,3.0,13.0,84,0.00,,,0.12,Wunderground v.1.15,2013-06-23 14:40:00,
2013-06-23 09:50:00,66.0,61.0,29.82,NNE,28,3.0,11.0,84,0.23,,,0.14,Wunderground v.1.15,2013-06-23 14:50:00,
2013-06-23 09:55:00,66.0,61.0,29.82,ENE,66,4.0,11.0,84,0.20,,,0.16,Wunderground v.1.15,2013-06-23 14:55:00,
2013-06-23 10:05:00,66.0,61.4,29.80,East,90,4.0,11.0,85,0.09,,,0.17,Wunderground v.1.15,2013-06-23 15:05:00,
2013-06-23 10:15:00,66.0,61.4,29.74,ESE,106,4.0,4.0,85,0.08,,,0.17,Wunderground v.1.15,2013-06-23 15:15:00,
2013-06-23 10:25:00,65.8,61.2,29.74,SE,124,6.0,9.0,85,0.10,,,0.19,Wunderground v.1.15,2013-06-23 15:25:00,
2013-06-23 10:30:00,65.8,61.2,29.71,SE,124,8.0,9.0,85,0.10,,,0.19,Wunderground v.1.15,2013-06-23 15:30:00,
2013-06-23 10:40:00,-999.9,-99.9,29.71,North,32767,-999.0,9.0,255,-99.99,,,0.19,Wunderground v.1.15,2013-06-23 15:40:00,
2013-06-23 10:50:00,-999.9,-99.9,29.72,North,32767,-999.0,9.0,255,-99.99,,,0.19,Wunderground v.1.15,2013-06-23 15:50:00,
2013-06-23 11:00:00,-999.9,-99.9,29.76,North,32767,-999.0,9.0,255,-99.99,,,0.19,Wunderground v.1.15,2013-06-23 16:00:00,
2013-06-23 11:10:00,-999.9,-99.9,29.76,ESE,121,6.0,9.0,255,-99.99,,,0.19,Wunderground v.1.15,2013-06-23 16:10:00,
2013-06-23 11:15:00,-999.9,-99.9,29.72,SSW,193,6.0,9.0,255,-99.99,,,0.19,Wunderground v.1.15,2013-06-23 16:15:00,
2013-06-23 11:25:00,67.3,63.0,29.72,East,83,5.0,7.0,86,0.04,,,0.28,Wunderground v.1.15,2013-06-23 16:25:00,
2013-06-23 11:35:00,67.3,63.0,29.76,NW,313,2.0,6.0,86,0.00,,,0.28,Wunderground v.1.15,2013-06-23 16:35:00,
2013-06-23 11:45:00,67.3,63.0,29.78,SE,137,5.0,8.0,86,0.00,,,0.29,Wunderground v.1.15,2013-06-23 16:45:00,
2013-06-23 11:55:00,67.4,63.1,29.78,ESE,119,13.0,17.0,86,0.06,,,0.29,Wunderground v.1.15,2013-06-23 16:55:00,
2013-06-23 12:00:00,67.6,63.3,29.71,South,186,16.0,16.0,86,0.06,,,0.29,Wunderground v.1.15,2013-06-23 17:00:00,
2013-06-23 12:05:00,68.3,63.9,29.71,SSE,165,22.0,22.0,86,0.06,,,0.29,Wunderground v.1.15,2013-06-23 17:05:00,
2013-06-23 12:10:00,68.3,63.9,29.71,SSE,152,21.0,21.0,86,0.06,,,0.31,Wunderground v.1.15,2013-06-23 17:10:00,
2013-06-23 12:20:00,67.8,63.1,29.67,ESE,106,15.0,35.0,85,0.04,,,0.32,Wunderground v.1.15,2013-06-23 17:20:00,
2013-06-23 12:30:00,68.3,64.3,29.60,ESE,114,16.0,35.0,87,0.04,,,0.32,Wunderground v.1.15,2013-06-23 17:30:00,
2013-06-23 12:35:00,68.3,64.3,29.60,East,93,22.0,35.0,87,0.04,,,0.32,Wunderground v.1.15,2013-06-23 17:35:00,
2013-06-23 12:40:00,68.3,64.3,29.60,ESE,106,22.0,35.0,87,0.00,,,0.32,Wunderground v.1.15,2013-06-23 17:40:00,
2013-06-23 12:45:00,71.8,67.7,29.57,SSE,150,17.0,35.0,87,0.00,,,0.32,Wunderground v.1.15,2013-06-23 17:45:00,
2013-06-23 12:55:00,73.9,66.2,29.57,SSE,154,15.0,30.0,77,0.00,,,0.32,Wunderground v.1.15,2013-06-23 17:55:00,
2013-06-23 13:00:00,74.2,65.8,29.64,SW,236,11.0,11.0,75,0.00,,,0.32,Wunderground v.1.15,2013-06-23 18:00:00,
2013-06-23 13:10:00,74.4,66.7,29.64,South,179,10.0,10.0,77,0.00,,,0.32,Wunderground v.1.15,2013-06-23 18:10:00,
2013-06-23 13:20:00,74.9,67.2,29.70,WSW,244,13.0,13.0,77,0.00,,,0.32,Wunderground v.1.15,2013-06-23 18:20:00,
2013-06-23 13:30:00,75.4,67.3,29.68,SSE,147,4.0,4.0,76,0.00,,,0.32,Wunderground v.1.15,2013-06-23 18:30:00,
2013-06-23 13:40:00,76.0,67.9,29.68,NNW,328,2.0,31.0,76,0.00,,,0.32,Wunderground v.1.15,2013-06-23 18:40:00,
2013-06-23 13:45:00,76.0,67.5,29.68,NNW,344,3.0,31.0,75,0.00,,,0.32,Wunderground v.1.15,2013-06-23 18:45:00,
2013-06-23 13:55:00,77.2,69.0,29.68,SW,234,6.0,20.0,76,0.00,,,0.32,Wunderground v.1.15,2013-06-23 18:55:00,
2013-06-23 14:05:00,78.3,70.1,29.68,SW,219,10.0,20.0,76,0.00,,,0.32,Wunderground v.1.15,2013-06-23 19:05:00,
2013-06-23 14:10:00,78.3,70.1,29.68,SW,215,11.0,11.0,76,0.00,,,0.32,Wunderground v.1.15,2013-06-23 19:10:00,
2013-06-23 14:20:00,78.5,69.5,29.69,SSW,209,10.0,10.0,74,0.00,,,0.32,Wunderground v.1.15,2013-06-23 19:20:00,
2013-06-23 14:30:00,79.0,70.4,29.70,SW,220,6.0,6.0,75,0.00,,,0.32,Wunderground v.1.15,2013-06-23 19:30:00,
2013-06-23 14:40:00,79.4,70.4,29.70,SSW,195,4.0,4.0,74,0.00,,,0.32,Wunderground v.1.15,2013-06-23 19:40:00,
2013-06-23 14:45:00,80.1,70.7,29.69,South,191,3.0,15.0,73,0.00,,,0.32,Wunderground v.1.15,2013-06-23 19:45:00,
2013-06-23 14:55:00,81.2,70.5,29.69,SSE,164,2.0,10.0,70,0.00,,,0.32,Wunderground v.1.15,2013-06-23 19:55:00,
2013-06-23 15:05:00,82.8,71.2,29.69,SSE,148,2.0,10.0,68,0.00,,,0.32,Wunderground v.1.15,2013-06-23 20:05:00,
2013-06-23 15:10:00,83.0,70.9,29.69,ESE,112,3.0,10.0,67,0.00,,,0.32,Wunderground v.1.15,2013-06-23 20:10:00,
2013-06-23 15:20:00,82.8,70.7,29.69,SE,127,4.0,9.0,67,0.00,,,0.32,Wunderground v.1.15,2013-06-23 20:20:00,
2013-06-23 15:25:00,83.0,70.9,29.69,SSE,150,3.0,9.0,67,0.00,,,0.32,Wunderground v.1.15,2013-06-23 20:25:00,
2013-06-23 15:35:00,82.2,70.1,29.69,South,179,1.0,9.0,67,0.00,,,0.32,Wunderground v.1.15,2013-06-23 20:35:00,
2013-06-23 15:45:00,82.4,70.3,29.69,East,79,6.0,9.0,67,0.00,,,0.32,Wunderground v.1.15,2013-06-23 20:45:00,
2013-06-23 15:50:00,82.8,71.2,29.69,East,96,3.0,3.0,68,0.00,,,0.32,Wunderground v.1.15,2013-06-23 20:50:00,
2013-06-23 16:00:00,83.2,71.5,29.68,East,86,2.0,2.0,68,0.00,,,0.32,Wunderground v.1.15,2013-06-23 21:00:00,
2013-06-23 16:10:00,83.0,71.3,29.68,East,86,3.0,3.0,68,0.00,,,0.32,Wunderground v.1.15,2013-06-23 21:10:00,
2013-06-23 16:15:00,83.0,71.3,29.68,East,79,3.0,9.0,68,0.00,,,0.32,Wunderground v.1.15,2013-06-23 21:15:00,
2013-06-23 16:25:00,83.2,71.5,29.68,East,88,2.0,7.0,68,0.00,,,0.32,Wunderground v.1.15,2013-06-23 21:25:00,
2013-06-23 16:30:00,83.2,71.5,29.69,East,96,1.0,7.0,68,0.00,,,0.32,Wunderground v.1.15,2013-06-23 21:30:00,
2013-06-23 16:40:00,83.2,70.7,29.69,ENE,78,4.0,4.0,66,0.00,,,0.32,Wunderground v.1.15,2013-06-23 21:40:00,
2013-06-23 16:50:00,83.6,70.6,29.69,East,92,3.0,3.0,65,0.00,,,0.32,Wunderground v.1.15,2013-06-23 21:50:00,
2013-06-23 16:55:00,83.6,70.1,29.69,East,85,3.0,8.0,64,0.00,,,0.32,Wunderground v.1.15,2013-06-23 21:55:00,
2013-06-23 17:05:00,83.2,70.2,29.69,East,93,4.0,8.0,65,0.00,,,0.32,Wunderground v.1.15,2013-06-23 22:05:00,
2013-06-23 17:10:00,83.0,70.5,29.69,East,93,5.0,5.0,66,0.00,,,0.32,Wunderground v.1.15,2013-06-23 22:10:00,
2013-06-23 17:20:00,83.2,70.2,29.69,ESE,106,4.0,4.0,65,0.00,,,0.32,Wunderground v.1.15,2013-06-23 22:20:00,
2013-06-23 17:25:00,83.2,69.8,29.69,East,97,4.0,9.0,64,0.00,,,0.32,Wunderground v.1.15,2013-06-23 22:25:00,
2013-06-23 17:35:00,83.2,69.8,29.69,East,93,5.0,10.0,64,0.00,,,0.32,Wunderground v.1.15,2013-06-23 22:35:00,
2013-06-23 17:40:00,83.6,70.1,29.69,East,88,4.0,4.0,64,0.00,,,0.32,Wunderground v.1.15,2013-06-23 22:40:00,
2013-06-23 17:50:00,84.0,70.5,29.68,ENE,78,3.0,13.0,64,0.00,,,0.32,Wunderground v.1.15,2013-06-23 22:50:00,
2013-06-23 18:00:00,83.8,70.3,29.68,East,79,4.0,13.0,64,0.00,,,0.32,Wunderground v.1.15,2013-06-23 23:00:00,
2013-06-23 18:05:00,83.6,70.1,29.68,ESE,112,4.0,13.0,64,0.00,,,0.32,Wunderground v.1.15,2013-06-23 23:05:00,
2013-06-23 18:15:00,83.2,70.2,29.67,East,85,6.0,7.0,65,0.00,,,0.32,Wunderground v.1.15,2013-06-23 23:15:00,
2013-06-23 18:25:00,83.0,70.0,29.67,ESE,113,5.0,11.0,65,0.00,,,0.32,Wunderground v.1.15,2013-06-23 23:25:00,
2013-06-23 18:30:00,82.8,70.3,29.67,ESE,117,4.0,4.0,66,0.00,,,0.32,Wunderground v.1.15,2013-06-23 23:30:00,
2013-06-23 18:40:00,81.8,69.8,29.67,ESE,106,3.0,3.0,67,0.00,,,0.32,Wunderground v.1.15,2013-06-23 23:40:00,
2013-06-23 18:50:00,81.2,70.1,29.67,ESE,104,3.0,10.0,69,0.00,,,0.32,Wunderground v.1.15,2013-06-23 23:50:00,
2013-06-23 18:55:00,81.2,70.1,29.67,East,96,3.0,10.0,69,0.00,,,0.32,Wunderground v.1.15,2013-06-23 23:55:00,
2013-06-23 19:05:00,81.4,70.2,29.66,East,89,4.0,10.0,69,0.00,,,0.32,Wunderground v.1.15,2013-06-24 00:05:00,
2013-06-23 19:15:00,81.8,71.1,29.67,ESE,114,3.0,10.0,70,0.00,,,0.32,Wunderground v.1.15,2013-06-24 00:15:00,
2013-06-23 19:25:00,82.0,70.8,29.67,SE,130,4.0,10.0,69,0.00,,,0.32,Wunderground v.1.15,2013-06-24 00:25:00,
2013-06-23 19:30:00,81.8,71.1,29.67,ESE,117,6.0,6.0,70,0.00,,,0.32,Wunderground v.1.15,2013-06-24 00:30:00,
2013-06-23 19:40:00,81.6,71.3,29.67,ESE,123,4.0,10.0,71,0.00,,,0.32,Wunderground v.1.15,2013-06-24 00:40:00,
2013-06-23 19:50:00,81.2,70.9,29.68,ESE,102,4.0,10.0,71,0.00,,,0.32,Wunderground v.1.15,2013-06-24 00:50:00,
2013-06-23 20:00:00,80.5,70.6,29.68,ESE,112,3.0,3.0,72,0.00,,,0.32,Wunderground v.1.15,2013-06-24 01:00:00,
2013-06-23 20:05:00,80.1,70.3,29.68,ESE,102,4.0,4.0,72,0.00,,,0.32,Wunderground v.1.15,2013-06-24 01:05:00,
2013-06-23 20:15:00,79.6,70.6,29.69,East,96,5.0,10.0,74,0.00,,,0.32,Wunderground v.1.15,2013-06-24 01:15:00,
2013-06-23 20:25:00,79.2,70.6,29.69,East,93,4.0,8.0,75,0.00,,,0.32,Wunderground v.1.15,2013-06-24 01:25:00,
2013-06-23 20:35:00,78.8,70.2,29.69,SE,130,5.0,7.0,75,0.00,,,0.32,Wunderground v.1.15,2013-06-24 01:35:00,
2013-06-23 20:45:00,78.5,70.3,29.70,ESE,102,5.0,8.0,76,0.00,,,0.32,Wunderground v.1.15,2013-06-24 01:45:00,
2013-06-23 20:50:00,78.3,70.1,29.70,ESE,123,4.0,11.0,76,0.00,,,0.32,Wunderground v.1.15,2013-06-24 01:50:00,
2013-06-23 21:00:00,78.1,70.3,29.71,ESE,113,4.0,4.0,77,0.00,,,0.32,Wunderground v.1.15,2013-06-24 02:00:00,
2013-06-23 21:10:00,77.9,70.1,29.71,ESE,103,4.0,11.0,77,0.00,,,0.32,Wunderground v.1.15,2013-06-24 02:10:00,
2013-06-23 21:20:00,77.9,70.5,29.71,ESE,110,5.0,5.0,78,0.00,,,0.32,Wunderground v.1.15,2013-06-24 02:20:00,
2013-06-23 21:30:00,77.7,70.7,29.71,ESE,121,5.0,5.0,79,0.00,,,0.32,Wunderground v.1.15,2013-06-24 02:30:00,
2013-06-23 21:35:00,77.6,70.6,29.71,SE,133,6.0,7.0,79,0.00,,,0.32,Wunderground v.1.15,2013-06-24 02:35:00,
2013-06-23 21:45:00,77.6,70.9,29.72,East,100,5.0,11.0,80,0.00,,,0.32,Wunderground v.1.15,2013-06-24 02:45:00,
2013-06-23 21:55:00,77.4,70.7,29.72,SSE,148,5.0,13.0,80,0.00,,,0.32,Wunderground v.1.15,2013-06-24 02:55:00,
2013-06-23 22:05:00,77.2,70.9,29.72,ESE,117,4.0,13.0,81,0.00,,,0.32,Wunderground v.1.15,2013-06-24 03:05:00,
2013-06-23 22:10:00,77.2,70.9,29.72,ESE,107,3.0,3.0,81,0.00,,,0.32,Wunderground v.1.15,2013-06-24 03:10:00,
2013-06-23 22:20:00,77.2,70.5,29.72,ESE,113,4.0,4.0,80,0.00,,,0.32,Wunderground v.1.15,2013-06-24 03:20:00,
2013-06-23 22:30:00,77.4,70.7,29.71,SE,140,5.0,5.0,80,0.00,,,0.32,Wunderground v.1.15,2013-06-24 03:30:00,
2013-06-23 22:40:00,77.7,71.0,29.71,SE,137,6.0,10.0,80,0.00,,,0.32,Wunderground v.1.15,2013-06-24 03:40:00,
2013-06-23 22:45:00,77.9,70.9,29.71,SE,140,6.0,10.0,79,0.00,,,0.32,Wunderground v.1.15,2013-06-24 03:45:00,
2013-06-23 22:55:00,77.7,70.7,29.71,SE,126,4.0,14.0,79,0.00,,,0.32,Wunderground v.1.15,2013-06-24 03:55:00,
2013-06-23 23:05:00,77.4,70.4,29.72,ESE,120,4.0,14.0,79,0.00,,,0.32,Wunderground v.1.15,2013-06-24 04:05:00,
2013-06-23 23:10:00,77.2,70.2,29.72,ESE,102,4.0,14.0,79,0.00,,,0.32,Wunderground v.1.15,2013-06-24 04:10:00,
2013-06-23 23:15:00,77.0,70.4,29.73,ESE,116,4.0,14.0,80,0.00,,,0.32,Wunderground v.1.15,2013-06-24 04:15:00,
2013-06-23 23:25:00,76.8,70.2,29.73,SE,140,3.0,10.0,80,0.00,,,0.32,Wunderground v.1.15,2013-06-24 04:25:00,
2013-06-23 23:30:00,77.2,70.2,29.74,SE,140,4.0,10.0,79,0.00,,,0.32,Wunderground v.1.15,2013-06-24 04:30:00,
2013-06-23 23:35:00,77.4,70.0,29.74,SE,141,5.0,5.0,78,0.00,,,0.32,Wunderground v.1.15,2013-06-24 04:35:00,
2013-06-23 23:45:00,77.4,69.6,29.74,SSE,160,4.0,4.0,77,0.00,,,0.32,Wunderground v.1.15,2013-06-24 04:45:00,
2013-06-23 23:55:00,77.9,68.9,29.74,SSE,158,4.0,4.0,74,0.00,,,0.32,Wunderground v.1.15,2013-06-24 04:55:00,